Regional Weather Roundup
Issued by NWS Kansas City/Pleasant Hill, MO

Home | Current Version | Previous Version | Graphics & Text | Print | Product List | Glossary Off
Versions: 1 2 3 4 5 6 7 8 9 10 11 12 13 14 15 16 17 18 19 20 21 22 23 24 25 26 27 28 29 30 31 32 33 34 35 36 37 38 39 40 41 42 43 44 45 46 47 48 49 50

000
ASUS43 KEAX 300710
RWREAX

WEATHER ROUNDUP FOR EASTERN KANSAS AND NORTHWEST MISSOURI
NATIONAL WEATHER SERVICE KANSAS CITY/PLEASANT HILL MO
100 AM CST FRI JAN 30 2015

KSZ040-057-103>105-MOZ028-029-037-043-300800-
...KANSAS CITY METROPOLITAN AREA...

CITY           SKY/WX    TMP DP  RH WIND       PRES   REMARKS
K.C. INTL      CLEAR     26  21  81 N8        30.51F WCI  18
K.C. DOWNTOWN  CLEAR     30  23  75 N5        30.53F WCI  25
LEES SUMMIT    CLEAR     28  21  75 N5        30.52S WCI  23
OLATHE - IXD   CLEAR     22  19  89 NW6       30.53S WCI  14
OLATHE - OJC   CLEAR     28  23  81 N3        30.51S
LAWRENCE       CLEAR     16  14  92 N6        30.55R WCI   7

$$

MOZ001>008-011>017-020>025-030>033-038>040-044>046-053-054-300800-
...NORTHERN AND CENTRAL MISSOURI...

CITY           SKY/WX    TMP DP  RH WIND       PRES   REMARKS
ST. JOSEPH     CLEAR     20  18  92 CALM      30.54S
MOSBY          SUNNY     23  19  86 CALM      30.53S
WARRENSBURG    CLEAR     28  23  80 NW3       30.52S
WHITEMAN AFB   CLEAR     27  22  80 NW2       30.51S
CLINTON        CLEAR     30  27  86 NW3       30.53R
SEDALIA        CLEAR     30  22  72 N6        30.51S WCI  24
WARSAW         NOT AVBL
MARSHALL       CLEAR     30  25  80 NW5       30.53S WCI  25
CHILLICOTHE      N/A     30  21  69 NW3       30.53F
MOBERLY        CLEAR     28  21  74 NW9       30.51S WCI  20
KIRKSVILLE     MOCLDY    27  21  78 NW8G18    30.50S WCI  19

$$

MOZ041-047>049-056>058-063>065-088>090-097-300800-
...EASTERN AND SOUTHERN MISSOURI...

CITY           SKY/WX    TMP DP  RH WIND       PRES   REMARKS
ST. LOUIS INTL MOCLDY    35  23  61 NW10      30.45R WCI  27
SPIRIT OF STL  CLOUDY    34  22  61 NW16G25   30.46R WCI  24
COLUMBIA       CLEAR     29  22  75 N13       30.49R WCI  19
JEFFERSON CITY CLEAR     32  22  66 NW7       30.51S WCI  26
MEXICO         CLEAR     30  27  86 NW7       30.48S WCI  23
HANNIBAL       CLOUDY    30  19  64 NW12      30.49S WCI  21
ROLLA          MOCLDY    32  23  69 N12       30.44S WCI  23
LEBANON        CLEAR     30  23  74 NW3       30.47S
OSAGE BEACH    PTCLDY    32  21  64 N6        30.50R WCI  26
SPRINGFIELD    CLEAR     25  21  85 N8        30.48S WCI  16
BRANSON        CLEAR     30  25  80 NW5       30.49R WCI  25
NEVADA         CLEAR     27  23  86 N6        30.54S WCI  20
JOPLIN         CLEAR     28  25  88 CALM      30.53S
WEST PLAINS    CLEAR     32  23  69 NW5       30.44S WCI  27

$$

IAZ060-094-KSZ022-034>040-054-083-096-NEZ052-066-093-300800-
...KANSAS...SOUTHEAST NEBRASKA AND IOWA...

CITY           SKY/WX    TMP DP  RH WIND       PRES   REMARKS
TOPEKA         CLEAR     23  20  88 CALM      30.55S
MANHATTAN      CLEAR     20  18  92 CALM      30.56R
EMPORIA        CLEAR     25  22  88 NW5       30.54S WCI  19
CHANUTE        CLEAR     29  25  85 N3        30.54R
WICHITA        PTCLDY    26  20  77 W3        30.52F
OMAHA          CLEAR     24  19  81 N6        30.55S WCI  17
LINCOLN        CLEAR     17  13  84 NW5       30.56S WCI  10
FALLS CITY     CLEAR     17  15  92 N5        30.53F WCI  10
LAMONI         CLEAR     22  18  85 N7        30.50F WCI  13
DES MOINES     PTCLDY    24  17  74 N10       30.52F WCI  14

$$




USA.gov is the U.S. government's official web portal to all federal, state and local government web resources and services.